197P/LINEAR (2022)

Japanese version
Home page
Updated on October 24, 2023

---------------------------------------------------------------------

* Profile

* Orbital Elements

Epoch 2023 Sept. 13.0 TT = JDT 2460200.5                                        
T 2022 Dec. 7.77790 TT                                  Rudenko                 
q   1.0635017            (2000.0)            P               Q                  
n   0.20268762     Peri.  188.82091     -0.26984672     +0.87823042             
a   2.8702379      Node    66.33874     -0.85506782     -0.03000625             
e   0.6294726      Incl.   25.53566     -0.44276605     -0.47729545             
P   4.86                                                                        
>From 366 observations 2003 May 23-2023 Oct. 17, mean residual 0".9.             
     Nongravitational parameters A1 = -0.00, A2 = +0.0018.                      

* Magnitudes Graph

        m1 = 17.5 + 5 log d + 10.0 log r

---------------------------------------------------------------------

The orbital elements are published on M.P.E.C. 2023-U159.
The magnitudes graphs are made with Comet for Windows.

---------------------------------------------------------------------

Copyright(C) Seiichi Yoshida (comet@aerith.net). All rights reserved.